Weather History for Gunnison, CO

Change the Weather History Date:

Sunday, June 3, 2012

  Actual Average Record
Temperature  
Mean Temperature 61 °F -  
Max Temperature 80 °F 69 °F 80 °F (2006)
Min Temperature 42 °F 35 °F 32 °F (2011)
Degree Days  
Heating Degree Days 4    
Growing Degree Days 11 (Base 50)    
Moisture  
Dew Point 29 °F    
Average Humidity 32    
Maximum Humidity 61    
Minimum Humidity 10    
Precipitation  
Precipitation 0.00 in - - ()
Sea Level Pressure  
Sea Level Pressure 30.24 in    
Wind  
Wind Speed 4 mph (NNE)    
Max Wind Speed 17 mph    
Max Gust Speed 25 mph    
Visibility 10 miles    
Events      
Averages and records for this station are not official NWS values.
T = Trace of Precipitation, MM = Missing Value Source: NWS Daily Summary

Daily Weather History Graph

Daily Weather History Graph

Search for Another Location

Airport:

Trip Planner

Search our weather history database for the weather conditions in past years. The results will help you decide how hot, cold, wet, or windy it might be!

Date:

Astronomy

Jun. 03, 2012 Rise Set
Actual Time 5:44 AM MDT 8:27 PM MDT
Civil Twilight 5:13 AM MDT 8:59 PM MDT
Nautical Twilight 4:33 AM MDT 9:38 PM MDT
Astronomical Twilight 3:49 AM MDT 10:22 PM MDT
Moon 7:56 PM MDT (6/3) 4:55 AM MDT (6/3)
Length of Visible Light 15h 46m
Length of Day
14h 43m
Waxing Gibbous, 99% of the Moon is Illuminated
Jun 3
Waxing Gibbous
Jun 4
Full
Jun 11
Last Quarter
Jun 19
New
Jun 26
First Quarter

Hourly Weather History & Observations

Time (MDT) Temp. Windchill Dew Point Humidity Pressure Visibility Wind Dir Wind Speed Gust Speed Precip Events Conditions
12:15 AM 57.2 °F - 30.2 °F 36% 30.20 in 10.0 mi NNW 4.6 mph - N/A   Scattered Clouds
12:35 AM 57.2 °F - 32.0 °F 38% 30.20 in 10.0 mi Calm Calm - N/A   Partly Cloudy
12:55 AM 55.4 °F - 32.0 °F 41% 30.20 in 10.0 mi Calm Calm - N/A   Clear
1:15 AM 55.4 °F - 33.8 °F 44% 30.21 in 10.0 mi North 5.8 mph - N/A   Clear
1:35 AM 53.6 °F - 33.8 °F 47% 30.20 in 10.0 mi Calm Calm - N/A   Clear
1:55 AM 53.6 °F - 32.0 °F 44% 30.20 in 10.0 mi Calm Calm - N/A   Clear
2:15 AM 51.8 °F - 33.8 °F 50% 30.21 in 10.0 mi Calm Calm - N/A   Clear
2:35 AM 51.8 °F - 33.8 °F 50% 30.21 in 10.0 mi NNE 4.6 mph - N/A   Clear
2:55 AM 51.8 °F - 33.8 °F 50% 30.20 in 10.0 mi NNE 5.8 mph - N/A   Clear
3:15 AM 50.0 °F - 32.0 °F 50% 30.21 in 10.0 mi Calm Calm - N/A   Partly Cloudy
3:35 AM 50.0 °F - 33.8 °F 54% 30.21 in 10.0 mi North 5.8 mph - N/A   Mostly Cloudy
3:55 AM 48.2 °F - 32.0 °F 54% 30.21 in 10.0 mi Calm Calm - N/A   Mostly Cloudy
4:15 AM 48.2 °F - 33.8 °F 58% 30.21 in 10.0 mi Calm Calm - N/A   Clear
4:35 AM 46.4 °F 45.2 °F 30.2 °F 53% 30.21 in 10.0 mi NNW 3.5 mph - N/A   Clear
4:55 AM 46.4 °F 43.5 °F 30.2 °F 53% 30.22 in 10.0 mi NNW 5.8 mph - N/A   Clear
5:15 AM 44.6 °F 43.1 °F 30.2 °F 57% 30.23 in 10.0 mi North 3.5 mph - N/A   Clear
5:35 AM 44.6 °F 43.1 °F 30.2 °F 57% 30.23 in 10.0 mi SE 3.5 mph - N/A   Clear
5:55 AM 42.8 °F - 30.2 °F 61% 30.24 in 10.0 mi Calm Calm - N/A   Clear
6:15 AM 42.8 °F - 30.2 °F 61% 30.25 in 10.0 mi Calm Calm - N/A   Clear
6:35 AM 44.6 °F - 30.2 °F 57% 30.25 in 10.0 mi Calm Calm - N/A   Clear
7:15 AM 46.4 °F 45.2 °F 30.2 °F 53% 30.26 in 10.0 mi ENE 3.5 mph - N/A   Clear
7:55 AM 48.2 °F - 30.2 °F 50% 30.27 in 10.0 mi North - - N/A   Clear
8:15 AM 51.8 °F - 30.2 °F 44% 30.27 in 10.0 mi Calm Calm - N/A   Clear
8:35 AM 51.8 °F - 30.2 °F 44% 30.27 in 10.0 mi Calm Calm - N/A   Clear
8:55 AM 55.4 °F - 30.2 °F 38% 30.27 in 10.0 mi Calm Calm - N/A   Clear
9:15 AM 57.2 °F - 26.6 °F 31% 30.27 in 10.0 mi NW 3.5 mph - N/A   Clear
9:35 AM 59.0 °F - 33.8 °F 39% 30.27 in 10.0 mi Calm Calm - N/A   Clear
9:55 AM 62.6 °F - 33.8 °F 34% 30.27 in 10.0 mi NNW 3.5 mph - N/A   Clear
10:15 AM 64.4 °F - 26.6 °F 24% 30.26 in 10.0 mi Calm Calm - N/A   Clear
10:35 AM 66.2 °F - 28.4 °F 24% 30.25 in 10.0 mi East 3.5 mph - N/A   Clear
10:55 AM 68.0 °F - 26.6 °F 21% 30.25 in 10.0 mi SSW 3.5 mph - N/A   Clear
11:15 AM 69.8 °F - 26.6 °F 20% 30.25 in 10.0 mi SSW 3.5 mph - N/A   Clear
11:35 AM 71.6 °F - 12.2 °F 10% 30.25 in 10.0 mi SSW 3.5 mph - N/A   Clear
11:55 AM 73.4 °F - 30.2 °F 20% 30.25 in 10.0 mi SW 6.9 mph - N/A   Clear
12:15 PM 75.2 °F - 30.2 °F 19% 30.24 in 10.0 mi SSW 6.9 mph - N/A   Clear
12:35 PM 75.2 °F - 28.4 °F 18% 30.23 in 10.0 mi WSW 4.6 mph - N/A   Clear
12:55 PM 77.0 °F - 28.4 °F 17% 30.22 in 10.0 mi South 4.6 mph - N/A   Clear
1:15 PM 77.0 °F - 23.0 °F 13% 30.21 in 10.0 mi SSW 5.8 mph - N/A   Clear
1:35 PM 77.0 °F - 24.8 °F 14% 30.21 in 10.0 mi WSW 4.6 mph - N/A   Clear
1:55 PM 77.0 °F - 24.8 °F 14% 30.20 in 10.0 mi WNW 3.5 mph - N/A   Clear
2:35 PM 78.8 °F - 24.8 °F 14% 30.19 in 10.0 mi SE 4.6 mph - N/A   Clear
2:55 PM 77.0 °F - 21.2 °F 12% 30.19 in 10.0 mi Calm Calm - N/A   Clear
3:15 PM 77.0 °F - 23.0 °F 13% 30.19 in 10.0 mi North 13.8 mph 18.4 mph N/A   Mostly Cloudy
3:35 PM 75.2 °F - 26.6 °F 17% 30.19 in 10.0 mi ENE 8.1 mph - N/A   Mostly Cloudy
3:55 PM 77.0 °F - 26.6 °F 16% 30.19 in 10.0 mi SSE 12.7 mph - N/A   Partly Cloudy
4:15 PM 78.8 °F - 24.8 °F 14% 30.19 in 10.0 mi West 10.4 mph - N/A   Clear
4:35 PM 80.6 °F - 23.0 °F 12% 30.19 in 10.0 mi North 16.1 mph 25.3 mph N/A   Clear
5:35 PM 77.0 °F - 26.6 °F 16% 30.19 in 10.0 mi North 11.5 mph - N/A   Clear
5:55 PM 77.0 °F - 26.6 °F 16% 30.19 in 10.0 mi North 15.0 mph 20.7 mph N/A   Clear
6:15 PM 75.2 °F - 28.4 °F 18% 30.19 in 10.0 mi North 13.8 mph - N/A   Clear
6:35 PM 75.2 °F - 28.4 °F 18% 30.20 in 10.0 mi North 10.4 mph - N/A   Clear
7:15 PM 73.4 °F - 26.6 °F 18% 30.22 in 10.0 mi North 9.2 mph - N/A   Clear
7:35 PM 71.6 °F - 26.6 °F 19% 30.24 in 10.0 mi ENE 13.8 mph - N/A   Clear
7:55 PM 71.6 °F - 28.4 °F 20% 30.24 in 10.0 mi ESE 16.1 mph - N/A   Clear
8:15 PM 69.8 °F - 28.4 °F 21% 30.25 in 10.0 mi SE 15.0 mph 20.7 mph N/A   Clear
8:35 PM 68.0 °F - 28.4 °F 23% 30.25 in 10.0 mi ESE 16.1 mph - N/A   Clear
8:55 PM 66.2 °F - 28.4 °F 24% 30.26 in 10.0 mi East 17.3 mph 20.7 mph N/A   Clear
9:15 PM 66.2 °F - 28.4 °F 24% 30.26 in 10.0 mi ESE 13.8 mph - N/A   Clear
9:35 PM 66.2 °F - 24.8 °F 21% 30.27 in 10.0 mi East 13.8 mph 23.0 mph N/A   Clear
9:55 PM 66.2 °F - 19.4 °F 17% 30.29 in 10.0 mi East 10.4 mph - N/A   Clear
10:15 PM 64.4 °F - 19.4 °F 18% 30.31 in 10.0 mi North 3.5 mph - N/A   Clear
10:35 PM 62.6 °F - 30.2 °F 30% 30.31 in 10.0 mi NE 3.5 mph - N/A   Clear
10:55 PM 62.6 °F - 30.2 °F 30% 30.31 in 10.0 mi NNW 4.6 mph - N/A   Clear
11:15 PM 62.6 °F - 30.2 °F 30% 30.31 in 10.0 mi NE 4.6 mph - N/A   Clear
11:35 PM 60.8 °F - 30.2 °F 31% 30.31 in 10.0 mi NNE 5.8 mph - N/A   Clear
11:55 PM 60.8 °F - 32.0 °F 34% 30.32 in 10.0 mi NNE 6.9 mph - N/A   Clear